カタログに戻る

SES 4

運用中通信GEO
NORAD 38087·PAYLOAD·🇱🇺 Luxembourg

打ち上げ Feb 14, 2012 から Baikonur Cosmodrome

Loading…

TLE

最新Source: CelesTrak SupGP

元期: Sep 14, 2026, 23:44 UTC

1 38087C 12007A   26257.98958333 -.00000099  00000+0  00000+0 0  2570
2 38087   0.0210  49.0418 0002469 126.5202 152.6514  1.00271153    11

AllMySatでSES 4をリアルタイム追跡

Download on the App Store